Date,TemperatureHighF,TemperatureAvgF,TemperatureLowF,DewpointHighF,DewpointAvgF,DewpointLowF,HumidityHigh,HumidityAvg,HumidityLow,PressureMaxIn,PressureMinIn,WindSpeedMaxMPH,WindSpeedAvgMPH,GustSpeedMaxMPH,PrecipitationSumIn
2013-1-1,31,18,5,28,11,0,93,74,58,29.90,29.62,11,2,33,0.00
2013-1-2,15,5,-10,12,0,-15,90,81,68,30.18,29.81,11,1,19,0.00
2013-1-3,11,-4,-18,1,-10,-22,86,77,57,30.19,29.88,3,0,6,0.00
2013-1-4,33,20,1,27,15,-2,94,82,65,29.88,29.69,15,3,26,0.00
2013-1-5,32,23,7,27,15,4,88,73,57,30.20,29.73,12,3,28,0.00
2013-1-6,28,20,7,27,17,4,95,91,88,30.17,29.85,1,0,4,0.00
2013-1-7,31,18,3,30,14,0,95,83,64,30.32,29.90,5,1,9,0.01
2013-1-8,41,24,4,25,18,1,95,78,52,30.34,30.13,7,1,16,0.01
2013-1-9,43,23,7,33,18,4,91,83,62,30.35,29.85,11,2,25,0.14
2013-1-10,40,34,24,31,25,20,86,71,62,30.53,29.95,15,5,33,0.01
2013-1-11,34,27,17,32,23,15,93,87,66,30.53,30.09,5,0,10,0.04
2013-1-12,46,35,32,41,33,30,96,93,79,30.12,30.04,3,0,5,0.01
2013-1-13,51,36,32,49,34,31,98,95,80,30.11,29.86,7,0,14,0.00
2013-1-14,49,39,32,46,32,24,97,78,49,30.25,29.78,10,2,23,0.00
2013-1-15,33,30,25,25,21,19,80,70,59,30.30,30.21,5,1,9,0.00
2013-1-16,30,27,22,27,23,20,94,88,80,30.21,29.73,2,0,7,0.00
2013-1-17,33,20,7,29,14,-3,95,75,47,30.12,29.73,9,1,16,0.00
2013-1-18,18,6,-7,4,-5,-12,84,63,40,30.29,30.10,7,1,21,0.00
2013-1-19,40,29,10,29,21,6,92,74,53,30.18,29.70,9,2,16,0.00
2013-1-20,46,34,16,32,21,2,85,60,47,29.90,29.38,15,7,35,0.01
2013-1-21,21,12,0,10,3,-4,86,68,44,30.00,29.77,7,1,15,0.00
2013-1-22,17,9,-1,7,1,-10,87,72,52,30.01,29.74,9,2,20,0.00
2013-1-23,2,-5,-15,-6,-14,-20,78,65,43,30.11,30.00,7,2,15,0.00
2013-1-24,11,-4,-17,-6,-14,-22,92,64,38,30.27,30.05,11,2,25,0.00
2013-1-25,15,4,-7,1,-6,-12,80,64,45,30.30,30.04,7,1,10,0.00
2013-1-26,14,8,-2,6,-2,-7,84,67,42,30.22,30.03,10,2,18,0.00
2013-1-27,20,9,0,6,-2,-5,84,63,34,30.45,30.22,9,2,16,0.00
2013-1-28,18,9,-2,16,5,-6,91,84,66,30.43,29.98,3,0,6,0.00
2013-1-29,31,24,16,29,22,13,94,90,84,30.15,29.99,4,0,7,0.05
2013-1-30,45,36,30,44,35,28,97,96,94,29.99,29.28,5,1,11,0.05
2013-1-31,42,32,23,40,21,8,97,65,50,29.47,28.94,17,7,34,0.13
2013-2-1,22,17,11,10,6,2,77,63,51,30.05,29.47,17,4,25,0.00
2013-2-2,20,14,4,13,6,0,86,73,55,30.12,29.98,10,2,18,0.00
2013-2-3,29,14,1,16,7,-2,89,75,45,29.99,29.70,5,0,8,0.00
2013-2-4,23,17,7,14,4,-5,90,61,32,29.87,29.67,13,3,25,0.00
2013-2-5,23,10,-4,7,-1,-8,85,62,38,29.98,29.86,6,1,12,0.00
2013-2-6,27,18,6,23,9,-6,85,70,48,30.31,29.83,6,1,12,0.02
2013-2-7,17,10,2,0,-5,-9,69,51,37,30.50,30.31,7,1,14,0.00
2013-2-8,23,18,13,20,14,1,91,84,58,30.40,29.89,4,0,13,0.00
2013-2-9,17,12,5,15,5,-2,90,73,54,30.28,29.88,12,5,26,0.00
2013-2-10,34,10,-8,12,0,-12,85,68,31,30.42,30.27,4,0,8,0.01
2013-2-11,33,22,4,32,19,1,95,87,66,30.26,29.57,4,0,10,0.00
2013-2-12,36,34,30,32,29,25,95,81,72,29.81,29.55,8,2,19,0.01
2013-2-13,38,31,28,26,23,19,87,73,48,29.81,29.72,7,1,15,0.00
2013-2-14,36,28,23,25,22,19,89,76,53,29.92,29.71,5,0,12,0.00
2013-2-15,44,33,22,32,24,18,92,72,47,29.92,29.82,11,2,25,0.01
2013-2-16,32,26,18,25,14,3,89,62,43,29.96,29.86,9,2,15,0.00
2013-2-17,18,12,10,5,2,0,73,64,53,29.86,29.60,12,4,30,0.00
2013-2-18,23,13,6,2,-1,-5,71,56,29,30.10,29.78,13,3,24,0.00
2013-2-19,39,24,5,30,13,-2,93,66,32,30.11,29.56,9,1,25,0.00
2013-2-20,32,26,21,30,21,16,94,79,58,29.71,29.54,9,2,18,0.01
2013-2-21,22,17,10,18,10,4,87,75,59,30.29,29.71,10,2,22,0.00
2013-2-22,33,25,11,24,19,8,92,80,63,30.40,30.22,4,1,8,0.01
2013-2-23,32,30,25,30,26,22,95,85,73,30.22,29.90,8,2,18,0.01
2013-2-24,39,32,29,35,30,27,100,92,85,29.91,29.74,3,0,10,0.07
2013-2-25,36,32,29,31,29,27,94,89,78,30.21,29.91,6,1,10,0.01
2013-2-26,42,34,28,36,29,27,96,82,61,30.30,30.12,10,2,18,0.01
2013-2-27,35,33,31,33,30,27,95,89,74,30.12,29.62,7,1,13,0.05
2013-2-28,45,35,31,38,33,30,96,91,75,29.62,29.54,5,0,8,0.25
2013-3-1,36,32,30,31,28,26,95,84,71,29.72,29.56,11,3,19,0.00
2013-3-2,33,29,23,26,24,19,90,82,72,29.74,29.69,10,3,19,0.00
2013-3-3,35,26,21,27,22,19,92,84,71,29.71,29.62,5,1,12,0.03
2013-3-4,29,25,22,21,20,18,88,80,69,29.84,29.65,9,2,23,0.00
2013-3-5,37,30,24,28,24,20,90,81,69,30.08,29.84,7,1,15,0.00
2013-3-6,41,34,27,31,26,23,93,75,56,30.17,30.07,7,1,18,0.00
2013-3-7,36,32,30,24,23,20,72,67,61,30.17,30.11,7,2,15,0.00
2013-3-8,43,33,25,27,24,21,88,71,51,30.29,30.11,10,2,20,0.00
2013-3-9,52,32,16,29,22,14,94,71,30,30.33,30.26,8,1,15,0.01
2013-3-10,54,36,20,31,25,18,94,69,34,30.33,30.13,8,1,12,0.00
2013-3-11,55,40,32,36,31,27,90,74,34,30.17,29.96,9,2,19,0.00
2013-3-12,45,40,35,44,38,32,100,92,74,29.97,29.68,8,1,18,0.31
2013-3-13,40,34,27,35,31,25,96,87,59,29.79,29.72,7,1,13,0.01
2013-3-14,29,24,16,27,16,6,94,75,56,29.86,29.70,10,3,20,0.01
2013-3-15,34,23,12,26,13,4,90,67,36,29.87,29.54,11,2,21,0.00
2013-3-16,29,23,13,21,14,9,86,69,48,29.88,29.67,7,2,16,0.05
2013-3-17,24,14,3,14,5,0,90,69,41,30.31,29.88,11,2,23,0.00
2013-3-18,36,18,-1,19,5,-4,89,61,28,30.40,30.12,9,1,20,0.00
2013-3-19,31,28,25,28,25,16,93,89,56,30.13,29.69,9,1,20,0.00
2013-3-20,33,27,19,28,22,16,94,83,63,29.69,29.61,8,2,15,0.03
2013-3-21,36,25,12,22,16,9,91,70,41,29.70,29.59,8,2,13,0.17
2013-3-22,36,23,8,22,16,5,91,75,49,29.72,29.61,9,2,15,0.02
2013-3-23,36,30,24,25,23,19,91,74,53,29.78,29.62,15,4,26,0.01
2013-3-24,38,32,21,26,23,17,86,71,56,29.85,29.76,9,2,22,0.01
2013-3-25,45,31,14,29,22,12,92,72,43,29.80,29.54,8,2,15,0.00
2013-3-26,43,36,26,28,24,22,86,65,45,29.79,29.59,10,3,23,0.00
2013-3-27,46,35,24,32,27,21,91,74,50,29.91,29.76,12,2,22,0.00
2013-3-28,47,37,32,35,32,29,95,81,57,30.03,29.90,8,1,15,0.00
2013-3-29,46,38,32,37,32,30,95,80,57,30.06,29.99,7,2,14,0.00
2013-3-30,49,37,25,33,24,16,100,65,27,30.09,30.03,12,2,21,0.01
2013-3-31,55,38,20,37,24,-100,94,65,30,30.09,29.74,11,3,22,0.00
2013-4-1,47,37,29,41,30,14,96,77,40,29.75,29.49,9,2,22,0.04
2013-4-2,32,27,23,16,12,8,65,53,41,29.85,29.73,12,6,26,0.00
2013-4-3,39,31,24,21,12,7,65,46,29,30.16,29.84,14,7,31,0.00
2013-4-4,49,39,26,25,16,10,60,41,25,30.22,29.88,11,4,23,0.00
2013-4-5,47,40,31,32,23,15,80,51,34,29.94,29.76,9,4,20,0.00
2013-4-6,38,29,22,16,10,6,64,46,27,30.28,29.94,15,5,28,0.00
2013-4-7,55,40,27,34,24,16,78,56,34,30.25,29.82,12,3,32,0.00
2013-4-8,56,44,36,39,33,30,84,66,41,30.12,29.85,8,2,19,0.00
2013-4-9,52,43,37,44,38,32,97,84,64,30.02,29.82,8,2,20,0.02
2013-4-10,51,43,38,45,40,36,97,90,71,30.00,29.90,5,1,7,0.05
2013-4-11,40,36,31,37,25,18,95,68,45,30.18,29.90,9,2,14,0.00
2013-4-12,33,31,30,31,26,18,94,83,56,30.18,29.83,9,2,16,0.00
2013-4-13,48,38,32,39,34,31,97,86,63,29.88,29.77,9,1,14,0.54
2013-4-14,47,37,29,40,33,26,97,85,60,30.22,29.86,8,1,18,0.01
2013-4-15,60,41,24,39,31,23,96,73,39,30.34,30.19,8,1,13,0.00
2013-4-16,60,49,34,54,44,32,93,82,61,30.24,29.92,17,3,31,0.08
2013-4-17,54,45,31,43,33,27,92,65,38,30.35,30.04,12,4,23,0.00
2013-4-18,61,44,28,41,33,26,94,69,45,30.38,29.94,15,3,26,0.01
2013-4-19,75,64,49,61,54,40,89,69,49,29.94,29.47,16,7,29,0.53
2013-4-20,51,43,33,47,31,17,93,64,39,30.24,29.62,12,5,28,0.01
2013-4-21,45,35,26,21,17,12,78,51,28,30.68,30.24,12,4,22,0.00
2013-4-22,55,38,20,26,20,17,92,55,27,30.73,30.53,11,4,19,0.00
2013-4-23,46,38,26,37,30,23,92,73,57,30.57,30.17,11,3,18,0.00
2013-4-24,76,57,41,52,42,36,88,62,23,30.16,29.63,10,2,22,0.01
2013-4-25,65,48,31,54,33,25,83,58,32,30.30,29.62,12,4,25,0.04
2013-4-26,55,40,26,40,31,24,94,72,40,30.45,30.30,9,1,15,0.00
2013-4-27,64,44,26,39,30,25,96,65,25,30.45,30.28,6,1,13,0.00
2013-4-28,73,50,27,44,33,-100,95,60,26,30.32,30.11,8,1,13,0.00
2013-4-29,67,54,39,48,41,36,91,65,37,30.21,30.11,10,2,20,0.00
2013-4-30,74,59,48,52,46,42,88,66,41,30.29,30.19,8,1,15,0.00
2013-5-1,81,59,37,51,42,35,96,62,24,30.44,30.29,7,2,13,0.00
2013-5-2,82,61,38,51,42,36,95,58,27,30.44,30.30,8,2,14,0.00
2013-5-3,72,57,39,46,38,28,83,52,31,30.51,30.32,9,3,14,0.00
2013-5-4,78,58,37,47,40,35,97,61,22,30.36,30.17,7,1,19,0.00
2013-5-5,81,59,37,47,39,34,94,55,22,30.27,30.11,6,1,14,0.00
2013-5-6,81,59,37,45,38,30,92,53,16,30.21,30.04,8,1,15,0.00
2013-5-7,84,61,38,49,42,36,96,58,20,30.14,30.02,8,1,13,0.00
2013-5-8,78,59,42,60,51,40,96,78,39,30.17,30.04,12,2,22,0.05
2013-5-9,66,59,52,61,57,51,98,92,78,30.04,29.86,5,1,9,0.06
2013-5-10,75,58,51,62,53,-100,98,88,48,29.97,29.82,3,0,8,0.02
2013-5-11,70,60,52,61,56,49,98,87,68,29.82,29.61,11,3,21,0.04
2013-5-12,63,52,42,51,40,-100,96,69,35,29.77,29.60,10,3,21,0.00
2013-5-13,49,43,35,36,30,25,92,60,45,30.03,29.74,10,4,28,0.00
2013-5-14,56,41,30,40,30,25,96,71,33,30.08,29.98,8,2,18,0.00
2013-5-15,64,43,26,48,36,24,96,79,34,30.04,29.60,11,2,21,0.03
2013-5-16,76,51,41,49,24,-100,97,64,26,29.88,29.59,19,4,33,0.00
2013-5-17,65,52,41,44,34,-100,90,65,41,30.23,29.88,11,3,25,0.00
2013-5-18,73,54,33,47,38,31,97,64,22,30.30,30.20,8,1,16,0.00
2013-5-19,70,54,39,56,48,37,96,81,48,30.29,30.12,7,1,12,0.27
2013-5-20,69,60,54,63,57,52,97,90,76,30.12,29.98,8,1,13,0.01
2013-5-21,74,64,53,66,59,52,98,86,65,30.00,29.84,7,2,14,0.08
2013-5-22,83,72,63,69,66,62,96,83,59,29.84,29.77,6,1,11,0.04
2013-5-23,77,68,60,67,62,59,98,84,61,29.79,29.71,10,3,20,0.41
2013-5-24,61,50,43,60,48,41,97,92,82,29.99,29.67,12,2,22,0.20
2013-5-25,43,43,42,41,41,40,94,93,91,29.99,29.91,6,1,15,0.04
2013-5-28,74,66,51,54,46,39,88,52,34,30.19,30.10,7,2,13,0.00
2013-5-29,67,57,51,61,55,48,97,92,80,30.12,29.94,4,0,7,0.01
2013-5-30,86,68,52,68,60,51,99,80,47,30.07,29.98,8,2,16,0.01
2013-5-31,93,73,55,69,62,54,98,73,40,30.09,29.90,8,2,19,0.00
2013-6-1,93,75,59,69,64,58,98,73,39,29.95,29.81,9,1,22,0.00
2013-6-2,88,73,64,74,65,-100,98,83,51,29.85,29.67,12,2,27,0.14
2013-6-4,65,57,46,47,45,42,92,64,47,30.11,29.96,10,4,21,0.00
2013-6-5,71,56,40,51,43,34,97,68,27,30.21,30.11,9,1,19,0.00
2013-6-6,69,56,47,53,48,44,95,78,47,30.20,30.09,6,1,13,0.11
2013-6-7,54,52,49,52,50,48,96,95,92,30.09,29.90,5,0,14,0.20
2013-6-8,66,57,51,58,54,50,98,91,73,30.02,29.77,5,1,12,0.01
2013-6-9,76,62,51,62,55,48,98,80,46,30.20,30.02,7,2,15,0.00
2013-6-10,75,60,46,60,52,45,98,80,42,30.23,30.00,6,1,18,0.14
2013-6-11,59,56,54,58,55,53,97,96,91,30.00,29.59,3,0,8,0.23
2013-6-12,68,58,51,56,53,48,97,85,61,29.86,29.60,12,2,20,0.04
2013-6-13,69,57,45,58,52,44,100,83,56,29.85,29.70,6,0,10,0.00
2013-6-14,76,63,49,58,52,47,97,72,47,29.85,29.71,9,3,20,0.00
2013-6-15,75,60,43,52,45,41,96,64,34,29.96,29.85,11,2,19,0.00
2013-6-16,73,57,45,60,53,44,97,88,53,29.93,29.69,8,1,15,0.15
2013-6-17,76,62,50,64,57,49,99,85,55,29.95,29.77,8,1,13,0.06
2013-6-18,70,56,45,55,50,43,97,83,46,30.00,29.92,9,1,14,0.01
2013-6-19,69,54,39,51,44,38,98,72,38,30.20,29.99,9,2,20,0.00
2013-6-20,79,55,38,52,43,37,99,72,30,30.27,30.20,8,1,13,0.00
2013-6-22,85,70,63,68,64,62,96,84,49,30.17,30.11,6,1,9,0.18
2013-6-23,87,71,62,75,67,61,99,89,61,30.12,29.96,8,1,18,0.22
2013-6-24,88,69,62,74,66,61,99,92,55,30.00,29.88,7,0,13,0.05
2013-6-25,90,69,61,74,66,60,98,91,52,29.93,29.76,7,1,14,0.17
2013-6-26,78,67,63,71,65,62,99,94,71,29.83,29.76,5,0,8,0.09
2013-6-27,86,69,59,72,64,58,99,88,50,29.82,29.73,5,0,11,0.00
2013-6-28,79,67,62,69,65,61,96,92,68,29.74,29.43,9,1,19,0.17
2013-6-29,82,69,62,68,64,61,98,85,52,29.69,29.50,10,2,16,0.20
2013-6-30,86,72,62,71,65,61,98,80,47,29.95,29.69,6,1,10,0.16
2013-7-1,72,68,61,69,66,59,98,94,83,30.11,29.94,5,0,9,0.14
2013-7-2,85,68,60,75,65,59,98,92,71,30.15,30.08,5,0,8,0.20
2013-7-3,88,72,64,75,69,63,98,91,60,30.19,30.12,7,1,12,0.41
2013-7-4,89,74,66,76,70,65,99,89,61,30.20,30.10,8,1,16,0.85
2013-7-5,91,72,63,76,68,62,99,91,53,30.17,30.06,7,0,13,0.01
2013-7-6,86,74,66,72,67,64,99,83,48,30.09,30.01,9,2,20,0.02
2013-7-7,87,71,60,73,66,59,98,85,51,30.05,29.93,6,0,9,0.00
2013-7-8,79,70,67,73,67,-100,98,95,79,30.06,29.96,1,0,7,0.09
2013-7-9,84,72,66,75,69,65,98,90,65,30.10,30.01,6,0,8,0.01
2013-7-10,78,71,68,74,66,-100,98,90,81,30.03,29.75,8,1,10,0.01
2013-7-11,81,70,58,69,64,56,98,83,54,30.04,29.74,10,2,21,0.02
2013-7-12,83,64,53,67,58,52,98,83,41,30.22,30.04,6,0,10,0.01
2013-7-13,81,68,54,69,62,53,98,81,54,30.32,30.23,6,1,13,0.00
2013-7-14,89,74,63,75,68,62,98,84,56,30.33,30.23,4,0,9,0.00
2013-7-15,92,75,64,74,67,63,99,80,42,30.26,30.16,9,1,15,0.00
2013-7-16,90,75,63,73,67,62,98,79,48,30.24,30.19,6,1,15,0.00
2013-7-17,95,73,62,73,67,61,98,84,45,30.22,29.99,7,1,13,0.08
2013-7-18,92,76,66,75,70,65,98,85,51,30.06,29.95,6,1,9,0.14
2013-7-19,91,74,68,75,69,67,99,88,57,29.95,29.69,6,1,10,0.04
2013-7-20,70,68,67,67,67,66,97,95,91,29.71,29.69,4,1,5,0.05
2013-9-3,77,67,59,65,60,57,97,82,54,29.82,29.71,8,2,14,0.03
2013-9-4,74,62,53,61,57,52,98,85,56,29.93,29.82,5,1,22,0.09
2013-9-5,64,55,41,58,47,39,96,78,46,30.18,29.90,8,2,20,0.04
2013-9-6,68,50,35,52,42,34,98,78,37,30.26,30.06,8,1,12,0.01
2013-9-7,67,49,46,55,47,45,97,93,58,30.06,29.97,4,0,7,0.00
2013-9-8,54,53,52,51,50,49,93,91,90,29.88,29.86,1,0,6,0.00
2013-9-11,93,80,68,76,72,66,96,78,53,30.01,29.92,11,3,20,0.18
2013-9-12,79,69,65,71,67,64,98,93,72,29.96,29.66,4,0,10,0.07
2013-9-13,66,59,53,65,56,50,98,92,84,29.85,29.63,8,2,14,0.01
2013-9-14,63,53,43,52,48,41,94,86,62,30.09,29.84,5,1,11,0.00
2013-9-15,68,49,39,56,44,-100,98,87,52,30.14,30.02,5,0,9,0.01
2013-9-16,53,48,34,52,44,32,97,87,59,30.33,30.02,8,2,19,0.02
2013-9-17,65,45,31,50,38,30,98,80,47,30.47,30.33,6,1,10,0.00
2013-9-18,39,36,35,37,35,34,96,95,94,30.33,30.31,0,0,2,0.01
2013-9-22,49,48,48,44,44,44,87,86,83,29.84,29.82,7,4,0,0.00
2013-9-23,50,47,43,42,40,38,89,77,68,30.04,29.98,5,2,0,0.00
2013-9-24,61,51,45,48,42,39,89,74,50,30.03,29.90,8,2,0,0.00
2013-9-25,63,51,40,50,45,39,97,82,62,30.03,29.92,7,2,0,0.00
2013-9-26,63,51,40,50,46,39,97,85,60,30.19,30.03,6,1,0,0.00
2013-9-27,63,53,51,51,50,49,95,89,64,30.29,30.18,4,0,0,0.00
2013-10-5,63,42,62,52,1,-100,68,45,67,30.10,30.09,0,0,5,0.00
2013-10-6,55,51,49,50,47,45,96,86,69,30.18,30.08,10,3,16,0.02
2013-10-7,68,58,52,64,55,47,95,89,79,30.08,29.60,13,4,28,0.26
2013-10-8,60,51,36,49,40,33,94,71,44,30.40,29.89,9,2,21,0.00
2013-10-9,68,44,32,47,36,30,96,78,35,30.49,30.35,4,0,9,0.01
2013-10-10,67,46,32,51,39,31,97,81,37,30.36,30.21,5,0,8,0.00
2013-10-11,43,41,39,41,39,37,95,93,91,30.21,30.18,0,0,6,0.00
2013-10-14,55,54,54,53,53,52,95,94,93,30.27,30.24,0,0,0,0.00
2013-10-15,67,58,50,57,54,49,98,85,67,30.28,30.13,7,-26,0,0.00
2013-10-16,64,58,52,54,52,50,95,80,61,30.13,29.83,7,2,0,0.00
2013-10-17,65,57,48,56,51,45,97,83,59,29.83,29.72,4,1,0,0.00
2013-10-18,62,53,44,53,46,37,97,78,55,29.88,29.62,8,2,0,0.00
2013-10-19,61,48,37,48,42,35,97,81,52,29.91,29.67,8,1,0,0.00
2013-10-20,56,49,39,48,37,-100,95,69,45,29.98,29.62,10,3,0,0.00
2013-10-21,62,46,31,45,37,-100,95,76,49,30.06,29.88,6,-12,0,0.00
2013-10-22,54,47,34,48,41,30,90,80,58,29.85,29.67,7,2,0,0.00
2013-10-23,52,40,31,35,32,28,95,74,47,29.77,29.60,9,1,0,0.00
2013-10-24,45,38,34,36,34,29,94,86,60,29.85,29.65,6,-16,0,0.00
2013-10-25,43,38,35,34,30,27,95,71,58,30.10,29.85,7,2,0,0.00
2013-10-26,45,37,27,36,31,24,95,81,54,30.10,29.78,9,-21,0,0.00
2013-10-27,47,41,32,38,31,-100,89,70,55,30.00,29.72,9,3,0,0.00
2013-10-28,45,35,24,37,28,-100,92,80,50,30.37,29.98,8,-24,21,0.00
2013-10-29,44,29,18,29,22,16,95,78,39,30.45,30.34,7,1,10,0.00
2013-10-30,43,34,24,35,30,21,93,85,71,30.34,30.17,3,0,0,0.00
2013-10-31,57,37,28,56,35,26,98,95,92,30.21,29.63,4,0,0,0.00
2013-11-1,67,61,53,60,51,42,98,73,47,29.60,29.26,13,7,0,0.00
2013-11-14,45,34,26,32,28,24,92,78,57,30.03,29.98,5,1,10,0.00
2013-11-15,55,34,25,32,25,23,93,75,31,30.16,30.03,6,1,11,0.01
2013-11-16,57,37,28,35,26,-100,92,72,34,30.27,30.16,7,1,12,0.00
2013-11-17,49,42,26,47,39,24,96,91,87,30.25,29.75,12,3,20,0.05
2013-11-18,56,50,39,55,40,30,95,70,49,29.71,29.39,10,5,26,0.10
2013-11-19,39,31,27,32,21,17,81,66,57,30.33,29.62,13,5,30,0.01
2013-11-20,36,27,18,20,18,15,89,68,47,30.63,30.33,8,2,14,0.01
2013-11-21,43,26,14,25,20,12,93,78,36,30.63,30.32,4,0,6,0.00
2013-11-22,39,32,29,38,30,25,97,91,80,30.32,29.78,1,0,15,0.02
2013-11-23,41,30,19,40,21,-100,96,74,59,29.93,29.71,17,4,27,0.03
2013-11-24,18,15,12,14,7,0,87,70,57,30.19,29.80,14,6,28,0.00
2013-11-25,32,20,7,18,7,-3,76,56,33,30.32,30.11,9,2,16,0.02
2013-11-26,34,31,30,29,23,13,93,73,47,30.21,29.99,9,2,18,0.01
2013-11-27,35,32,30,34,31,26,96,94,85,29.99,29.34,6,1,19,0.01
2013-11-28,30,19,10,26,12,6,88,74,52,30.37,29.45,11,2,29,0.02
2013-11-29,25,13,6,15,7,3,90,79,50,30.73,30.37,8,1,11,0.01
2013-11-30,25,15,-1,17,6,-100,88,71,52,30.75,30.30,8,2,15,0.00
2013-12-1,35,31,22,30,25,16,94,80,64,30.28,30.03,8,1,18,0.00
2013-12-2,35,32,28,33,30,27,95,93,89,30.03,29.88,1,0,4,0.00
2013-12-3,34,32,30,33,30,28,96,94,84,29.97,29.89,4,0,10,0.00
2013-12-4,39,30,24,29,26,22,92,83,63,30.15,29.97,5,0,8,0.01
2013-12-5,40,31,23,38,29,21,95,92,89,30.14,29.90,7,1,16,0.02
2013-12-6,38,34,31,37,32,28,97,92,83,30.11,29.86,4,0,8,0.05
2013-12-7,32,27,23,28,16,-100,89,65,55,30.42,30.09,10,2,18,0.00
2013-12-8,26,22,20,16,13,9,79,66,53,30.54,30.41,7,1,14,0.00
2013-12-9,35,27,22,33,23,13,95,86,65,30.42,29.81,7,2,16,0.00
2013-12-10,34,32,30,31,25,20,89,76,65,29.83,29.80,8,2,16,0.00
2013-12-19,34,32,30,29,28,27,92,86,79,30.04,29.92,4,0,11,0.00
2013-12-20,34,32,30,33,31,28,96,95,93,30.05,29.83,2,0,6,0.01
2013-12-21,47,36,33,46,33,-100,98,95,96,29.90,29.75,4,1,14,0.12
2013-12-22,36,33,32,35,32,31,97,96,96,29.92,29.67,5,1,12,0.04
2013-12-23,36,34,30,35,32,23,97,95,75,30.12,29.92,9,1,16,0.01
2013-12-24,26,17,6,17,10,1,90,73,55,30.26,30.07,6,2,16,0.00
2013-12-25,17,9,0,8,2,-4,86,73,55,30.49,30.27,5,1,10,0.00
2013-12-26,24,20,15,22,16,6,93,85,66,30.35,30.04,5,0,9,0.00
2013-12-27,30,25,18,26,20,16,94,83,69,30.16,30.11,6,1,13,0.01
2013-12-28,38,28,14,34,24,-100,93,89,84,30.10,29.93,7,1,13,0.00
2013-12-29,35,31,23,33,29,22,96,94,93,29.96,29.56,3,0,5,0.00
2013-12-30,34,19,2,33,12,-4,97,77,58,30.17,29.55,9,2,29,0.00
2013-12-31,16,8,1,11,3,-4,88,77,68,30.16,29.95,6,1,16,0.00
2014-1-1,17,12,0,10,3,-9,84,69,57,30.38,30.06,7,2,14,0.00
2014-1-2,2,-1,-4,-2,-6,-11,83,77,65,30.37,29.96,4,1,9,0.00